Stations météo

réclame
Mon MeteoGroup
Crosby, Grande-Bretagne (3316): Température de l'air & dewpoint: 20.08.2019 01:00:00 - 26.08.2019 01:00:00 (BST)Crosby, Grande-Bretagne (3316): Vitesse du vent & gusts: 20.08.2019 01:00:00 - 26.08.2019 01:00:00 (BST)Crosby, Grande-Bretagne (3316): Direction du vent: 20.08.2019 01:00:00 - 26.08.2019 01:00:00 (BST)Crosby, Grande-Bretagne (3316): reduced air pressure: 20.08.2019 01:00:00 - 26.08.2019 01:00:00 (BST)Crosby, Grande-Bretagne (3316): visibility: 20.08.2019 01:00:00 - 26.08.2019 01:00:00 (BST)Crosby, Grande-Bretagne (3316): Quantités de précipitations: 20.08.2019 01:00:00 - 26.08.2019 01:00:00 (BST)
Date & Time tt [°C] td [°C] ff [km/h] ff [knt] fx [km/h] fx [knt] dd ppp [hPa] vv [km] rr [mm]
26.08.2019 01:00:00 14,6 14,0 5 3 - - NE 1019,6 4,2 0,0
26.08.2019 00:00:00 14,4 13,7 5 3 - - NNE 1019,7 5 0,0
25.08.2019 23:00:00 14,7 13,8 5 3 - - ENE 1019,5 5 0,0
25.08.2019 22:00:00 14,8 13,8 11 6 - - NNE 1019,7 8 0,0
25.08.2019 21:00:00 15,5 13,8 9 5 - - NNE 1019,4 10 0,0
25.08.2019 20:00:00 17,3 14,8 9 5 - - NNW 1018,9 18 0,0
25.08.2019 19:00:00 18,2 15,1 15 8 - - NNW 1018,7 13 0,0
25.08.2019 18:00:00 18,8 15,7 18 10 - - NNW 1018,6 17 0,0
25.08.2019 17:00:00 19,3 15,9 21 11 - - NNW 1018,6 18 0,0
25.08.2019 16:00:00 19,8 16,4 21 11 - - NW 1018,1 18 0,0
25.08.2019 15:00:00 18,8 16,7 22 12 - - NW 1017,8 7 0,0
25.08.2019 14:00:00 19,7 16,9 24 13 - - NW 1017,4 22 0,0
25.08.2019 13:00:00 28,5 13,2 15 8 - - SSE 1016,7 23 0,0
25.08.2019 12:00:00 26,7 14,1 13 7 - - SSE 1017,2 27 0,0
25.08.2019 11:00:00 25,1 13,2 15 8 - - SSE 1017,3 35 0,0
25.08.2019 10:00:00 23,4 12,6 15 8 - - SSE 1017,4 28 0,0
25.08.2019 09:00:00 20,8 12,6 11 6 - - SE 1017,2 40 0,0
25.08.2019 08:00:00 19,5 12,2 11 6 - - SE 1016,9 30 0,0
25.08.2019 07:00:00 18,6 11,9 13 7 - - SE 1016,5 35 0,0
25.08.2019 06:00:00 18,1 11,9 8 4 - - ESE 1016,4 45 0,0
25.08.2019 05:00:00 18,7 11,9 11 6 - - ESE 1016,2 50 0,0
25.08.2019 04:00:00 18,8 12,3 11 6 - - ESE 1016,2 40 0,0
25.08.2019 03:00:00 18,8 12,4 11 6 - - ESE 1016,2 50 0,0
25.08.2019 02:00:00 19,0 12,6 13 7 - - ESE 1016,3 45 0,0
25.08.2019 01:00:00 19,3 13,2 13 7 - - ESE 1016,5 35 0,0
25.08.2019 00:00:00 19,6 14,0 11 6 - - ESE 1016,4 28 0,0
24.08.2019 23:00:00 20,3 13,8 11 6 - - ESE 1016,3 45 0,0
24.08.2019 22:00:00 21,0 14,2 9 5 - - ESE 1016,2 45 0,0
24.08.2019 21:00:00 18,5 12,9 8 4 - - ESE 1016,1 40 0,0
24.08.2019 20:00:00 23,6 12,1 5 3 - - S 1015,8 50 0,0
24.08.2019 19:00:00 25,2 12,5 11 6 - - S 1015,6 45 0,0
24.08.2019 18:00:00 25,4 12,8 15 8 - - S 1016,0 45 0,0
24.08.2019 17:00:00 25,5 13,3 15 8 - - S 1016,4 45 0,0
24.08.2019 16:00:00 26,1 12,9 21 11 - - S 1016,8 50 0,0
24.08.2019 15:00:00 25,2 13,7 13 7 - - S 1017,3 45 0,0
24.08.2019 14:00:00 24,8 13,4 16 9 - - S 1017,7 23 0,0
24.08.2019 13:00:00 24,0 13,1 21 11 - - S 1018,0 30 0,0
24.08.2019 12:00:00 22,9 13,4 16 9 - - S 1018,5 26 0,0
24.08.2019 11:00:00 21,8 12,5 13 7 - - S 1018,6 28 0,0
24.08.2019 10:00:00 20,4 13,1 11 6 - - SSE 1018,7 40 0,0
24.08.2019 09:00:00 18,6 14,0 9 5 - - SSE 1018,9 40 0,0
24.08.2019 08:00:00 16,3 13,9 9 5 - - SE 1018,8 27 0,0
24.08.2019 07:00:00 15,6 13,8 11 6 - - SSE 1018,9 35 0,0
24.08.2019 06:00:00 14,1 13,6 9 5 - - SE 1019,3 19 0,0
24.08.2019 05:00:00 13,5 12,5 5 3 - - ESE 1019,4 13 0,0
24.08.2019 04:00:00 13,5 13,1 5 3 - - SE 1019,5 19 0,0
24.08.2019 03:00:00 12,5 11,7 5 3 - - E 1019,7 7 0,0
24.08.2019 02:00:00 15,1 14,7 9 5 - - ESE 1019,8 28 0,0
24.08.2019 01:00:00 15,5 14,9 8 4 - - ESE 1020,2 27 0,0
24.08.2019 00:00:00 15,2 14,3 8 4 - - E 1020,1 24 0,0
23.08.2019 23:00:00 16,0 14,9 5 3 - - E 1020,2 25 0,0
23.08.2019 22:00:00 15,5 14,2 4 2 - - N 1020,4 30 0,0
23.08.2019 21:00:00 15,9 14,4 8 4 - - E 1020,6 50 0,0
23.08.2019 20:00:00 17,1 15,1 13 7 - - ENE 1020,7 45 0,0
23.08.2019 19:00:00 18,4 14,9 11 6 - - N 1020,9 45 0,0
23.08.2019 18:00:00 20,3 16,0 16 9 - - NNW 1021,1 50 0,0
23.08.2019 17:00:00 20,9 16,1 13 7 - - NNW 1021,4 26 0,0
23.08.2019 16:00:00 20,4 16,7 11 6 - - NNW 1021,9 30 0,0
23.08.2019 15:00:00 19,8 16,0 11 6 - - NNW 1022,6 45 0,0
23.08.2019 14:00:00 20,5 16,4 13 7 - - NW 1023,0 30 0,0
23.08.2019 13:00:00 20,4 15,7 9 5 - - WNW 1023,1 50 0,0
23.08.2019 12:00:00 19,6 14,2 8 4 - - SSW 1023,4 45 0,0
23.08.2019 11:00:00 19,3 15,3 11 6 - - WSW 1023,4 50 0,0
23.08.2019 10:00:00 18,3 15,0 11 6 - - W 1023,6 50 0,0
23.08.2019 09:00:00 18,5 15,4 5 3 - - SSW 1023,3 40 0,0
23.08.2019 08:00:00 17,7 15,4 9 5 - - SSW 1023,1 50 0,0
23.08.2019 07:00:00 17,4 15,1 21 11 - - SW 1022,8 35 0,0
23.08.2019 06:00:00 17,6 14,8 26 14 - - WSW 1022,6 35 0,0
23.08.2019 05:00:00 17,7 15,3 29 16 - - WSW 1022,3 26 0,0
23.08.2019 04:00:00 17,7 15,3 34 18 - - WSW 1022,4 14 0,0
23.08.2019 03:00:00 17,8 15,5 22 12 - - WSW 1022,5 30 0,0
23.08.2019 02:00:00 17,6 15,5 26 14 - - SW 1022,5 19 0,0
23.08.2019 01:00:00 17,6 15,4 24 13 - - SW 1022,8 50 0,0
23.08.2019 00:00:00 17,4 15,4 21 11 - - SW 1022,8 35 0,0
22.08.2019 23:00:00 17,4 15,4 26 14 - - SW 1022,3 45 0,0
22.08.2019 22:00:00 17,6 15,3 26 14 - - SW 1021,7 35 0,0
22.08.2019 21:00:00 17,9 15,5 22 12 - - SSW 1021,2 30 0,0
22.08.2019 20:00:00 18,0 15,6 26 14 - - SW 1020,7 20 0,0
22.08.2019 19:00:00 18,2 15,4 35 19 46 25 SW 1020,3 15 0,0
22.08.2019 18:00:00 18,4 15,3 31 17 46 25 SW 1019,9 10 0,0
22.08.2019 17:00:00 18,5 14,7 35 19 48 26 WSW 1019,9 11 0,0
22.08.2019 16:00:00 18,9 14,6 37 20 50 27 WSW 1019,8 11 0,2
22.08.2019 15:00:00 18,8 15,1 29 16 46 25 WSW 1020,0 12 0,0
22.08.2019 14:00:00 18,8 15,8 24 13 - - W 1019,8 26 0,0
22.08.2019 13:00:00 18,3 16,1 15 8 - - W 1019,8 14 0,0
22.08.2019 12:00:00 16,8 15,8 29 16 - - WSW 1020,1 10 0,4
22.08.2019 11:00:00 17,8 15,0 24 13 - - WSW 1019,9 30 0,0
22.08.2019 10:00:00 17,8 14,8 29 16 - - WSW 1019,5 40 0,0
22.08.2019 09:00:00 17,5 14,6 29 16 - - WSW 1019,3 25 0,0
22.08.2019 08:00:00 17,2 14,2 29 16 - - WSW 1019,2 28 0,0
22.08.2019 07:00:00 17,1 14,4 28 15 - - SW 1019,1 20 0,0
22.08.2019 06:00:00 16,8 15,0 26 14 - - WSW 1019,0 10 0,0
22.08.2019 05:00:00 16,8 14,8 21 11 - - WSW 1019,1 8 0,0
22.08.2019 04:00:00 16,7 14,3 26 14 46 25 SW 1019,3 12 0,0
22.08.2019 03:00:00 16,7 13,6 31 17 46 25 SW 1019,5 13 0,0
22.08.2019 02:00:00 16,3 12,2 26 14 - - SSW 1019,8 13 0,0
22.08.2019 01:00:00 16,3 11,7 29 16 - - SSW 1020,0 35 0,0
22.08.2019 00:00:00 16,0 11,7 31 17 - - SSW 1020,2 50 0,0
21.08.2019 23:00:00 16,2 11,7 31 17 - - SSW 1020,7 45 0,0
21.08.2019 22:00:00 16,1 12,5 28 15 - - SSW 1021,0 50 0,0
21.08.2019 21:00:00 16,7 11,9 34 18 48 26 SW 1021,2 28 0,0
21.08.2019 20:00:00 17,2 11,9 39 21 50 27 SW 1021,3 30 0,0
21.08.2019 19:00:00 17,5 12,4 28 15 - - SW 1021,7 30 0,0
21.08.2019 18:00:00 17,9 13,1 26 14 - - SW 1021,9 30 0,0
21.08.2019 17:00:00 18,2 12,8 29 16 - - SW 1022,3 40 0,0
21.08.2019 16:00:00 17,8 13,0 29 16 - - WSW 1022,6 23 0,2
21.08.2019 15:00:00 18,6 12,8 28 15 - - WSW 1022,7 35 0,0
21.08.2019 14:00:00 18,6 13,6 18 10 - - WSW 1023,1 40 0,0
21.08.2019 13:00:00 17,4 13,3 16 9 - - WSW 1023,6 35 0,0
21.08.2019 12:00:00 18,2 12,1 22 12 - - SW 1024,2 40 0,0
21.08.2019 11:00:00 18,4 12,1 - - - - - 1024,1 30 0,0
21.08.2019 10:00:00 17,5 12,8 24 13 - - SW 1024,3 35 0,0
21.08.2019 09:00:00 16,3 12,9 21 11 - - SW 1024,4 45 0,0
21.08.2019 08:00:00 15,0 13,2 15 8 - - S 1024,4 35 0,0
21.08.2019 07:00:00 14,7 12,8 11 6 - - S 1023,9 35 0,0
21.08.2019 06:00:00 14,6 12,6 13 7 - - S 1023,8 35 0,0
21.08.2019 05:00:00 16,0 13,1 21 11 - - WSW 1023,7 28 0,0
21.08.2019 04:00:00 15,7 13,2 21 11 - - SW 1023,7 21 0,0
21.08.2019 03:00:00 16,2 13,4 26 14 - - W 1023,6 22 0,0
21.08.2019 02:00:00 15,7 13,6 18 10 - - SW 1023,5 13 0,0
21.08.2019 01:00:00 15,3 13,7 21 11 - - SW 1023,4 15 0,0
21.08.2019 00:00:00 14,4 13,3 15 8 - - S 1023,3 26 0,0
20.08.2019 23:00:00 14,5 13,4 15 8 - - S 1023,1 30 0,0
20.08.2019 22:00:00 14,0 13,1 16 9 - - S 1023,1 23 0,2
20.08.2019 21:00:00 13,8 12,9 16 9 - - SSE 1023,1 27 2,4
20.08.2019 20:00:00 14,4 12,4 24 13 - - S 1023,1 5 0,2
20.08.2019 19:00:00 16,5 11,7 26 14 - - SW 1023,0 30 0,0
20.08.2019 18:00:00 17,1 9,3 5 3 - - W 1022,7 26 0,0
20.08.2019 17:00:00 16,9 9,6 15 8 - - WNW 1022,6 23 0,0
20.08.2019 16:00:00 16,9 9,5 16 9 - - WNW 1022,6 15 0,0
20.08.2019 15:00:00 17,6 10,7 16 9 - - W 1022,6 10 0,0
20.08.2019 14:00:00 17,1 11,1 21 11 - - WNW 1022,5 9 0,0
20.08.2019 13:00:00 16,5 10,2 26 14 - - W 1022,5 13 0,0
20.08.2019 12:00:00 15,7 10,9 28 15 - - W 1021,9 19 0,0
20.08.2019 11:00:00 15,4 10,2 31 17 - - WNW 1021,3 20 0,0
20.08.2019 10:00:00 14,7 10,1 31 17 - - WNW 1020,6 27 0,0
20.08.2019 09:00:00 14,8 10,6 29 16 - - WNW 1019,9 26 0,0
20.08.2019 08:00:00 14,5 9,9 34 18 - - WNW 1019,4 28 0,0
20.08.2019 07:00:00 14,4 10,9 35 19 - - WNW 1018,6 23 0,0
20.08.2019 06:00:00 14,3 10,7 34 18 - - WNW 1017,8 26 0,0
20.08.2019 05:00:00 14,7 10,9 35 19 - - WNW 1017,2 15 0,0
20.08.2019 04:00:00 14,9 11,5 34 18 - - WNW 1017,0 10 0,0
20.08.2019 03:00:00 15,0 11,3 35 19 - - WNW 1016,5 10 0,0
20.08.2019 02:00:00 15,2 11,6 35 19 - - W 1016,3 10 0,0
20.08.2019 01:00:00 15,4 11,7 31 17 - - W 1016,0 11 0,0

tt = Température de l'air
td = dewpoint
ff = Vitesse du vent
fx = gusts
dd = Direction du vent
ppp = reduced air pressure
vv = visibility
rr = Quantités de précipitations

stations d'obs. à proximité